Location: Asheville, NC
(35.6000°N, 82.5500°W)
Time: 21:03:09
(UTC-05:00)

XW-2F - Pass Details

Date: 10 January 2018
Orbit: 506 x 528 km, 97.5° (Epoch: 21 January)

Event Time Altitude Azimuth Distance (km) Brightness Sun altitude
Rises 18:15:48 0° 181° (S) 2,646 ? -8.3°
Reaches altitude 10° 18:17:57 10° 188° (S) 1,761 ? -8.7°
Maximum altitude 18:21:36 44° 261° (W) 739 ? -9.4°
Drops below altitude 10° 18:25:16 10° 334° (NNW) 1,772 ? -10.1°
Sets 18:27:27 0° 341° (NNW) 2,663 ? -10.5°
